Date String (YYYY-MM-DD hh:mm:ss) UTC,Instrument flags,Ambient pressure (hPa),Sample flow (lpm),Bypass flow (lpm),Sample temperature (°C),Ambient temperature (°C),ASC tube jacket temperature (°C),LED temperature (°C),Box temperature (°C),Sample RH (%),Span deviation,Mass concentration (μg/m³),Mass concentration (μg/m³),Mass concentration (μg/m³)
DateTimeUTC,F1_M11,P_M11,Q1_M11,Q2_M11,T1_M11,T2_M11,T3_M11,T4_M11,T5_M11,U1_M11,ZSPAN_M11,X0_M11,X2_M11,X1_M11
2022-03-08 19:00:00,,0822.5,5.01,0.00,22.5,21.9,00.0,31.6,24.2,05.9,0000.0,0006.74,0003.87,0003.58
2022-03-08 19:01:00,,0822.5,4.99,0.00,22.5,21.8,00.0,31.6,24.2,05.8,0000.0,0006.69,0003.87,0003.60
2022-03-08 19:02:00,,0822.5,5.01,0.00,22.5,21.8,00.0,31.6,24.2,05.8,0000.0,0006.58,0003.85,0003.59
2022-03-08 19:03:00,,0822.5,5.00,0.00,22.5,21.8,00.0,31.6,24.2,05.8,0000.0,0006.44,0003.83,0003.59
2022-03-08 19:04:00,,0822.6,5.00,0.00,22.5,21.8,00.0,31.6,24.2,05.7,0000.0,0006.35,0003.81,0003.59
2022-03-08 19:05:00,,0822.5,5.00,0.00,22.4,21.8,00.0,31.5,24.1,05.8,0000.0,0006.29,0003.80,0003.59
2022-03-08 19:06:00,,0822.6,4.99,0.00,22.4,21.7,00.0,31.5,24.1,05.8,0000.0,0006.26,0003.80,0003.58
2022-03-08 19:07:00,,0822.4,5.01,0.00,22.4,21.7,00.0,31.5,24.1,05.6,0000.0,0006.75,0003.79,0003.59
2022-03-08 19:08:00,,0822.4,4.99,0.00,22.4,21.7,00.0,31.5,24.2,05.5,0000.0,0007.14,0003.82,0003.60
2022-03-08 19:09:00,,0822.4,5.01,0.00,22.4,21.7,00.0,31.5,24.2,05.4,0000.0,0006.23,0003.83,0003.61
2022-03-08 19:10:00,,0822.5,5.00,0.00,22.4,21.8,00.0,31.5,24.2,05.7,0000.0,0006.15,0003.83,0003.60
2022-03-08 19:11:00,,0822.4,5.00,0.00,22.4,21.8,00.0,31.5,24.2,06.1,0000.0,0006.11,0003.83,0003.61
2022-03-08 19:12:00,,0822.4,4.99,0.00,22.4,21.8,00.0,31.5,24.2,05.7,0000.0,0006.15,0003.84,0003.62
2022-03-08 19:13:00,,0822.3,5.00,0.00,22.4,21.7,00.0,31.5,24.1,05.7,0000.0,0006.29,0003.86,0003.62
2022-03-08 19:14:00,,0822.3,5.00,0.00,22.4,21.7,00.0,31.5,24.1,05.9,0000.0,0006.37,0003.89,0003.64
2022-03-08 19:15:00,,0822.3,5.01,0.00,22.4,21.7,00.0,31.5,24.0,05.6,0000.0,0006.48,0003.90,0003.63
2022-03-08 19:16:00,,0822.3,5.00,0.00,22.3,21.7,00.0,31.5,24.1,05.7,0000.0,0006.71,0003.91,0003.62
2022-03-08 19:17:00,,0822.3,4.99,0.00,22.4,21.7,00.0,31.4,24.1,06.0,0000.0,0006.82,0003.91,0003.61
2022-03-08 19:18:00,,0822.3,5.00,0.00,22.4,21.7,00.0,31.4,24.1,05.7,0000.0,0006.26,0003.89,0003.59
2022-03-08 19:19:00,,0822.3,5.01,0.00,22.4,21.8,00.0,31.4,24.2,05.5,0000.0,0006.01,0003.88,0003.56
2022-03-08 19:20:00,,0822.3,5.00,0.00,22.4,21.8,00.0,31.4,24.2,05.8,0000.0,0006.02,0003.87,0003.54
2022-03-08 19:21:00,,0822.3,5.00,0.00,22.4,21.8,00.0,31.4,24.2,05.4,0000.0,0005.91,0003.84,0003.52
2022-03-08 19:22:00,,0822.3,5.00,0.00,22.4,21.8,00.0,31.4,24.2,05.4,0000.0,0005.82,0003.81,0003.50
2022-03-08 19:23:00,,0822.3,4.99,0.00,22.4,21.8,00.0,31.4,24.2,05.2,0000.0,0005.75,0003.79,0003.47
2022-03-08 19:24:00,,0822.2,5.00,0.00,22.4,21.8,00.0,31.4,24.2,05.3,0000.0,0005.72,0003.77,0003.44
2022-03-08 19:25:00,,0822.2,5.00,0.00,22.5,21.9,00.0,31.4,24.3,05.3,0000.0,0005.73,0003.76,0003.42
2022-03-08 19:26:00,,0822.1,5.00,0.00,22.5,21.9,00.0,31.4,24.3,05.4,0000.0,0006.18,0003.76,0003.40
2022-03-08 19:27:00,,0822.1,5.00,0.00,22.5,22.0,00.0,31.5,24.4,05.2,0000.0,0006.58,0003.74,0003.38
2022-03-08 19:28:00,,0822.1,5.00,0.00,22.6,22.0,00.0,31.5,24.4,05.4,0000.0,0006.42,0003.70,0003.37
2022-03-08 19:29:00,,0822.1,5.00,0.00,22.6,22.1,00.0,31.5,24.5,05.7,0000.0,0006.36,0003.68,0003.36
2022-03-08 19:30:00,,0822.1,5.01,0.00,22.6,22.1,00.0,31.5,24.5,05.3,0000.0,0006.38,0003.66,0003.35
2022-03-08 19:31:00,,0822.1,4.99,0.00,22.6,22.1,00.0,31.5,24.4,05.6,0000.0,0006.28,0003.63,0003.34
2022-03-08 19:32:00,,0822.0,4.99,0.00,22.6,22.1,00.0,31.5,24.4,05.2,0000.0,0006.19,0003.60,0003.33
2022-03-08 19:33:00,,0822.0,5.00,0.00,22.6,22.0,00.0,31.5,24.4,05.1,0000.0,0006.15,0003.58,0003.31
2022-03-08 19:34:00,,0822.0,5.01,0.00,22.6,22.0,00.0,31.5,24.4,05.4,0000.0,0006.12,0003.57,0003.30
2022-03-08 19:35:00,,0822.0,5.00,0.00,22.6,22.0,00.0,31.5,24.3,05.3,0000.0,0006.02,0003.53,0003.28
2022-03-08 19:36:00,,0822.0,4.99,0.00,22.6,22.0,00.0,31.5,24.3,05.3,0000.0,0005.99,0003.52,0003.27
2022-03-08 19:37:00,,0822.0,5.01,0.00,22.6,22.0,00.0,31.5,24.4,05.7,0000.0,0005.37,0003.47,0003.25
2022-03-08 19:38:00,,0821.9,5.00,0.00,22.6,22.0,00.0,31.6,24.4,05.5,0000.0,0004.65,0003.44,0003.24
2022-03-08 19:39:00,,0821.8,5.01,0.00,22.6,22.0,00.0,31.6,24.4,05.6,0000.0,0004.70,0003.46,0003.24
2022-03-08 19:40:00,,0821.9,4.99,0.00,22.6,22.0,00.0,31.6,24.4,05.6,0000.0,0004.92,0003.49,0003.26
2022-03-08 19:41:00,,0821.8,5.00,0.00,22.6,22.1,00.0,31.6,24.4,05.5,0000.0,0004.75,0003.49,0003.26
2022-03-08 19:42:00,,0821.8,5.00,0.00,22.7,22.1,00.0,31.6,24.5,05.5,0000.0,0005.49,0003.51,0003.27
2022-03-08 19:43:00,,0821.8,5.00,0.00,22.7,22.1,00.0,31.6,24.5,05.3,0000.0,0005.79,0003.55,0003.28
2022-03-08 19:44:00,,0821.8,5.00,0.00,22.7,22.2,00.0,31.6,24.6,05.5,0000.0,0005.90,0003.58,0003.29
2022-03-08 19:45:00,,0821.7,5.01,0.00,22.7,22.2,00.0,31.6,24.6,05.9,0000.0,0006.75,0003.59,0003.32
2022-03-08 19:46:00,,0821.8,5.00,0.00,22.8,22.2,00.0,31.6,24.6,06.1,0000.0,0007.00,0003.61,0003.33
2022-03-08 19:47:00,,0821.7,4.99,0.00,22.8,22.2,00.0,31.6,24.6,05.6,0000.0,0007.39,0003.60,0003.34
2022-03-08 19:48:00,,0821.6,5.01,0.00,22.8,22.2,00.0,31.7,24.6,05.6,0000.0,0007.43,0003.62,0003.35
2022-03-08 19:49:00,,0821.7,5.01,0.00,22.8,22.2,00.0,31.7,24.6,05.5,0000.0,0007.53,0003.64,0003.36
2022-03-08 19:50:00,,0821.6,5.00,0.00,22.8,22.2,00.0,31.7,24.6,05.9,0000.0,0007.52,0003.64,0003.36
2022-03-08 19:51:00,,0821.7,4.99,0.00,22.8,22.2,00.0,31.7,24.6,05.7,0000.0,0007.47,0003.63,0003.35
2022-03-08 19:52:00,,0821.7,5.01,0.00,22.7,22.1,00.0,31.7,24.5,05.8,0000.0,0007.54,0003.66,0003.37
2022-03-08 19:53:00,,0821.7,4.99,0.00,22.7,22.0,00.0,31.7,24.5,05.5,0000.0,0007.16,0003.66,0003.37
2022-03-08 19:54:00,,0821.7,5.00,0.00,22.7,22.0,00.0,31.7,24.3,05.6,0000.0,0006.97,0003.66,0003.37
2022-03-08 19:55:00,,0821.7,5.01,0.00,22.6,22.0,00.0,31.7,24.3,05.9,0000.0,0007.04,0003.67,0003.39
2022-03-08 19:56:00,,0821.7,5.01,0.00,22.6,22.0,00.0,31.7,24.3,05.8,0000.0,0006.33,0003.68,0003.39
2022-03-08 19:57:00,,0821.6,5.00,0.00,22.6,22.0,00.0,31.7,24.3,05.3,0000.0,0006.13,0003.69,0003.39
2022-03-08 19:58:00,,0821.6,4.99,0.00,22.6,21.9,00.0,31.7,24.3,05.4,0000.0,0005.51,0003.68,0003.40
2022-03-08 19:59:00,,0821.5,4.99,0.00,22.6,21.9,00.0,31.6,24.3,05.5,0000.0,0005.45,0003.67,0003.40
